Precipitable_Water
0.46 0.47 0.47 0.47 0.49 0.51 0.55 0.59 0.60 0.62 0.63 0.64 0.64 0.64 0.63 0.63 0.62 0.60 0.56 0.57 0.55 0.55 0.54 0.54 0.54 0.52 0.49 0.49 0.48 0.48 0.46 0.37 0.33 0.29 0.26 0.22 0.28 0.31 0.27 0.25 0.27 0.31 0.31 0.27 0.31 0.31 0.27 0.28 0.28 0.27 0.22 0.20 0.20 0.22 0.26 0.22 0.24 0.20 0.14 0.13 0.12 0.12 0.12 0.12 0.12 0.13 0.20 0.18 0.18 0.18 0.19 0.18 0.29 0.56 0.64 0.79 0.76 0.73 0.73 0.82 0.82 0.87 0.88 1.00 0.92 1.00 1.06 1.12
0.45 0.45 0.46 0.46 0.46 0.47 0.50 0.53 0.58 0.60 0.62 0.64 0.65 0.65 0.64 0.63 0.63 0.61 0.59 0.57 0.56 0.54 0.54 0.55 0.54 0.52 0.51 0.48 0.47 0.49 0.42 0.35 0.28 0.27 0.23 0.33 0.33 0.31 0.27 0.29 0.28 0.31 0.32 0.26 0.24 0.24 0.22 0.22 0.24 0.23 0.19 0.17 0.26 0.18 0.26 0.21 0.23 0.16 0.14 0.13 0.11 0.13 0.14 0.15 0.15 0.17 0.17 0.19 0.18 0.18 0.19 0.20 0.20 0.51 0.61 0.64 0.64 0.66 0.67 0.74 0.78 0.73 0.78 0.85 0.85 0.93 0.98 1.05
0.44 0.44 0.44 0.45 0.45 0.44 0.45 0.48 0.53 0.56 0.59 0.62 0.64 0.66 0.65 0.64 0.64 0.63 0.62 0.60 0.58 0.56 0.54 0.53 0.53 0.51 0.50 0.48 0.48 0.46 0.40 0.30 0.29 0.21 0.38 0.45 0.38 0.34 0.29 0.30 0.28 0.31 0.30 0.23 0.25 0.25 0.22 0.21 0.22 0.20 0.18 0.17 0.19 0.20 0.21 0.24 0.19 0.17 0.16 0.14 0.14 0.16 0.16 0.14 0.15 0.16 0.17 0.20 0.18 0.18 0.19 0.20 0.21 0.31 0.51 0.60 0.53 0.59 0.60 0.57 0.60 0.60 0.58 0.69 0.76 0.87 0.93 1.00
0.44 0.44 0.44 0.44 0.44 0.44 0.44 0.44 0.46 0.50 0.53 0.58 0.62 0.64 0.64 0.65 0.65 0.65 0.63 0.63 0.62 0.60 0.56 0.53 0.52 0.52 0.50 0.47 0.48 0.46 0.37 0.26 0.24 0.32 0.45 0.51 0.44 0.36 0.31 0.29 0.30 0.32 0.33 0.27 0.26 0.26 0.26 0.25 0.22 0.19 0.17 0.16 0.20 0.23 0.17 0.24 0.16 0.20 0.16 0.13 0.14 0.16 0.14 0.13 0.15 0.17 0.18 0.20 0.19 0.18 0.19 0.19 0.22 0.25 0.31 0.44 0.49 0.54 0.57 0.58 0.57 0.52 0.57 0.64 0.73 0.81 0.88 0.91
0.43 0.43 0.43 0.42 0.42 0.43 0.42 0.42 0.43 0.44 0.47 0.52 0.58 0.61 0.63 0.64 0.66 0.65 0.64 0.62 0.63 0.63 0.60 0.56 0.52 0.51 0.49 0.49 0.45 0.45 0.32 0.19 0.29 0.42 0.56 0.52 0.51 0.40 0.33 0.30 0.31 0.33 0.31 0.29 0.26 0.24 0.23 0.22 0.20 0.18 0.17 0.14 0.20 0.19 0.17 0.22 0.20 0.23 0.16 0.14 0.17 0.18 0.13 0.16 0.17 0.17 0.18 0.20 0.19 0.19 0.18 0.18 0.22 0.29 0.31 0.37 0.39 0.42 0.56 0.63 0.67 0.68 0.67 0.65 0.66 0.76 0.85 0.87
0.43 0.43 0.43 0.42 0.41 0.41 0.43 0.42 0.42 0.43 0.43 0.46 0.51 0.56 0.60 0.62 0.65 0.66 0.63 0.63 0.63 0.64 0.62 0.60 0.56 0.51 0.50 0.49 0.45 0.41 0.25 0.09 0.38 0.44 0.55 0.55 0.55 0.43 0.36 0.32 0.32 0.34 0.31 0.26 0.22 0.21 0.20 0.20 0.18 0.16 0.15 0.14 0.18 0.15 0.17 0.22 0.21 0.15 0.17 0.17 0.19 0.17 0.14 0.17 0.17 0.17 0.17 0.19 0.19 0.18 0.19 0.19 0.19 0.20 0.25 0.38 0.44 0.45 0.57 0.62 0.68 0.69 0.76 0.77 0.81 0.82 0.81 0.82
0.43 0.43 0.43 0.42 0.41 0.41 0.41 0.43 0.41 0.42 0.43 0.43 0.45 0.50 0.56 0.60 0.63 0.64 0.63 0.63 0.63 0.64 0.64 0.61 0.59 0.56 0.51 0.46 0.46 0.34 0.24 0.19 0.38 0.47 0.58 0.63 0.58 0.47 0.44 0.40 0.37 0.33 0.30 0.22 0.21 0.19 0.20 0.19 0.17 0.15 0.14 0.15 0.18 0.16 0.20 0.21 0.19 0.15 0.16 0.18 0.16 0.16 0.15 0.17 0.16 0.17 0.17 0.17 0.18 0.20 0.20 0.18 0.18 0.18 0.30 0.38 0.49 0.42 0.42 0.47 0.57 0.71 0.78 0.77 0.74 0.77 0.82 0.85
0.43 0.43 0.43 0.43 0.42 0.42 0.42 0.42 0.42 0.41 0.42 0.43 0.43 0.45 0.51 0.55 0.60 0.62 0.62 0.62 0.63 0.63 0.65 0.62 0.60 0.56 0.53 0.42 0.34 0.31 0.23 0.17 0.37 0.59 0.61 0.64 0.59 0.49 0.51 0.44 0.38 0.34 0.28 0.22 0.20 0.19 0.19 0.18 0.15 0.17 0.15 0.14 0.18 0.16 0.22 0.19 0.17 0.15 0.14 0.19 0.18 0.17 0.16 0.17 0.16 0.16 0.16 0.17 0.19 0.20 0.18 0.18 0.19 0.19 0.23 0.25 0.38 0.42 0.42 0.46 0.52 0.70 0.72 0.73 0.75 0.76 0.82 0.87
0.43 0.43 0.42 0.43 0.43 0.42 0.42 0.42 0.43 0.42 0.41 0.41 0.42 0.44 0.47 0.51 0.54 0.59 0.60 0.61 0.61 0.62 0.63 0.65 0.60 0.57 0.56 0.45 0.32 0.20 0.17 0.34 0.41 0.58 0.71 0.62 0.53 0.49 0.52 0.42 0.41 0.33 0.28 0.26 0.23 0.21 0.19 0.18 0.17 0.20 0.14 0.14 0.19 0.16 0.21 0.16 0.15 0.16 0.16 0.18 0.18 0.17 0.17 0.17 0.16 0.16 0.16 0.17 0.18 0.18 0.18 0.19 0.19 0.21 0.19 0.24 0.41 0.42 0.51 0.52 0.56 0.67 0.64 0.68 0.74 0.79 0.83 0.89
0.42 0.42 0.42 0.42 0.43 0.42 0.42 0.42 0.44 0.45 0.45 0.44 0.43 0.43 0.43 0.44 0.48 0.53 0.58 0.60 0.60 0.61 0.62 0.64 0.61 0.57 0.48 0.40 0.34 0.20 0.31 0.44 0.49 0.64 0.68 0.60 0.52 0.45 0.44 0.40 0.39 0.34 0.29 0.27 0.26 0.24 0.19 0.21 0.19 0.20 0.23 0.18 0.20 0.15 0.20 0.15 0.16 0.19 0.17 0.18 0.17 0.17 0.17 0.17 0.15 0.15 0.17 0.17 0.18 0.17 0.18 0.18 0.21 0.20 0.18 0.30 0.43 0.45 0.48 0.55 0.60 0.61 0.61 0.67 0.74 0.81 0.89 0.94
0.42 0.42 0.42 0.42 0.42 0.42 0.42 0.42 0.43 0.45 0.46 0.45 0.45 0.44 0.43 0.42 0.45 0.48 0.54 0.57 0.59 0.59 0.61 0.61 0.63 0.55 0.44 0.38 0.25 0.19 0.31 0.47 0.50 0.55 0.61 0.60 0.47 0.37 0.35 0.36 0.36 0.32 0.30 0.27 0.25 0.24 0.23 0.22 0.24 0.23 0.19 0.17 0.17 0.17 0.19 0.16 0.18 0.18 0.18 0.17 0.16 0.16 0.16 0.16 0.16 0.16 0.17 0.15 0.17 0.17 0.17 0.20 0.25 0.21 0.22 0.36 0.43 0.46 0.47 0.53 0.56 0.60 0.64 0.68 0.75 0.81 0.92 0.98
0.41 0.41 0.41 0.41 0.42 0.42 0.42 0.42 0.42 0.43 0.46 0.46 0.45 0.45 0.44 0.44 0.43 0.45 0.48 0.53 0.55 0.58 0.59 0.60 0.62 0.55 0.44 0.36 0.26 0.25 0.35 0.43 0.52 0.55 0.57 0.53 0.42 0.38 0.39 0.37 0.35 0.33 0.30 0.25 0.26 0.26 0.24 0.23 0.24 0.21 0.16 0.23 0.15 0.20 0.16 0.20 0.17 0.17 0.16 0.14 0.15 0.15 0.14 0.15 0.14 0.15 0.16 0.15 0.17 0.17 0.16 0.16 0.23 0.19 0.25 0.42 0.43 0.51 0.50 0.51 0.55 0.60 0.65 0.71 0.76 0.83 0.91 0.96
0.41 0.40 0.40 0.40 0.41 0.41 0.42 0.42 0.42 0.42 0.44 0.46 0.45 0.45 0.44 0.43 0.42 0.43 0.45 0.47 0.52 0.55 0.58 0.59 0.58 0.54 0.43 0.28 0.33 0.36 0.33 0.37 0.48 0.50 0.55 0.56 0.48 0.43 0.41 0.39 0.37 0.38 0.34 0.29 0.26 0.27 0.25 0.26 0.26 0.21 0.28 0.20 0.20 0.15 0.21 0.20 0.17 0.17 0.16 0.15 0.15 0.15 0.13 0.14 0.16 0.16 0.15 0.16 0.17 0.16 0.11 0.12 0.18 0.20 0.33 0.41 0.39 0.44 0.49 0.48 0.53 0.59 0.63 0.70 0.76 0.83 0.90 1.00
0.41 0.40 0.40 0.40 0.40 0.40 0.41 0.42 0.42 0.42 0.42 0.45 0.46 0.45 0.44 0.43 0.43 0.43 0.44 0.45 0.50 0.54 0.57 0.58 0.58 0.50 0.43 0.28 0.35 0.37 0.39 0.41 0.48 0.49 0.52 0.54 0.43 0.39 0.38 0.36 0.36 0.36 0.36 0.34 0.32 0.29 0.26 0.30 0.29 0.31 0.29 0.24 0.21 0.26 0.20 0.18 0.18 0.13 0.15 0.16 0.13 0.13 0.12 0.15 0.15 0.15 0.13 0.16 0.16 0.16 0.11 0.13 0.16 0.18 0.31 0.37 0.43 0.38 0.41 0.50 0.52 0.58 0.62 0.70 0.76 0.84 0.89 0.99
0.40 0.40 0.40 0.39 0.40 0.40 0.41 0.41 0.41 0.41 0.41 0.43 0.45 0.46 0.45 0.44 0.45 0.45 0.46 0.48 0.51 0.55 0.53 0.59 0.56 0.47 0.37 0.36 0.44 0.49 0.46 0.45 0.43 0.46 0.50 0.44 0.40 0.35 0.32 0.31 0.30 0.32 0.33 0.31 0.27 0.28 0.27 0.29 0.29 0.22 0.21 0.26 0.26 0.19 0.17 0.16 0.15 0.15 0.14 0.12 0.12 0.13 0.14 0.16 0.16 0.15 0.13 0.15 0.17 0.15 0.12 0.13 0.16 0.24 0.32 0.39 0.42 0.40 0.42 0.47 0.52 0.56 0.61 0.70 0.77 0.82 0.90 0.94
0.39 0.40 0.40 0.40 0.39 0.40 0.41 0.40 0.40 0.40 0.40 0.40 0.42 0.44 0.47 0.49 0.50 0.53 0.55 0.58 0.62 0.62 0.67 0.56 0.53 0.49 0.35 0.29 0.42 0.51 0.42 0.33 0.41 0.50 0.49 0.45 0.40 0.32 0.30 0.28 0.30 0.30 0.30 0.28 0.28 0.26 0.28 0.31 0.26 0.24 0.24 0.23 0.21 0.16 0.16 0.15 0.15 0.15 0.13 0.12 0.12 0.13 0.13 0.15 0.16 0.16 0.15 0.17 0.16 0.14 0.12 0.14 0.15 0.21 0.35 0.43 0.42 0.39 0.43 0.46 0.50 0.55 0.60 0.69 0.76 0.82 0.89 0.92
0.39 0.39 0.39 0.40 0.40 0.40 0.40 0.41 0.41 0.41 0.40 0.38 0.39 0.43 0.47 0.49 0.54 0.58 0.63 0.66 0.66 0.69 0.64 0.51 0.56 0.53 0.28 0.39 0.43 0.34 0.31 0.38 0.46 0.46 0.48 0.47 0.40 0.30 0.27 0.26 0.25 0.26 0.27 0.26 0.25 0.26 0.28 0.26 0.27 0.24 0.23 0.20 0.19 0.17 0.14 0.13 0.13 0.13 0.13 0.13 0.16 0.13 0.12 0.13 0.18 0.17 0.17 0.15 0.14 0.15 0.13 0.16 0.24 0.26 0.33 0.40 0.42 0.39 0.42 0.46 0.50 0.54 0.60 0.71 0.77 0.81 0.86 0.89
0.40 0.39 0.39 0.39 0.39 0.39 0.40 0.41 0.42 0.41 0.41 0.38 0.37 0.41 0.45 0.52 0.59 0.63 0.64 0.67 0.70 0.67 0.66 0.68 0.59 0.40 0.25 0.37 0.29 0.34 0.36 0.38 0.41 0.45 0.49 0.47 0.33 0.26 0.25 0.24 0.25 0.22 0.22 0.22 0.25 0.24 0.27 0.23 0.24 0.21 0.20 0.20 0.19 0.16 0.13 0.12 0.13 0.13 0.12 0.12 0.16 0.15 0.14 0.13 0.16 0.19 0.16 0.16 0.15 0.15 0.14 0.15 0.17 0.28 0.31 0.39 0.42 0.41 0.43 0.49 0.51 0.53 0.61 0.71 0.76 0.79 0.85 0.88
0.39 0.40 0.40 0.39 0.39 0.39 0.40 0.40 0.40 0.41 0.41 0.40 0.41 0.46 0.51 0.57 0.61 0.62 0.53 0.56 0.47 0.42 0.34 0.45 0.39 0.23 0.25 0.28 0.33 0.36 0.38 0.44 0.45 0.46 0.43 0.35 0.28 0.27 0.25 0.25 0.22 0.19 0.18 0.20 0.21 0.23 0.25 0.25 0.22 0.21 0.17 0.17 0.15 0.15 0.14 0.17 0.17 0.16 0.15 0.13 0.15 0.13 0.13 0.14 0.20 0.23 0.19 0.18 0.15 0.17 0.16 0.16 0.18 0.23 0.31 0.40 0.44 0.44 0.47 0.54 0.54 0.54 0.66 0.72 0.75 0.79 0.85 0.87
0.38 0.38 0.39 0.40 0.40 0.40 0.39 0.39 0.40 0.40 0.41 0.38 0.39 0.40 0.40 0.35 0.37 0.36 0.48 0.49 0.38 0.32 0.31 0.34 0.38 0.32 0.34 0.36 0.34 0.42 0.47 0.46 0.39 0.43 0.45 0.35 0.26 0.24 0.23 0.20 0.19 0.20 0.21 0.19 0.22 0.25 0.26 0.20 0.16 0.15 0.16 0.18 0.18 0.18 0.21 0.20 0.18 0.17 0.17 0.15 0.15 0.16 0.16 0.16 0.21 0.24 0.23 0.19 0.19 0.19 0.19 0.19 0.20 0.21 0.34 0.42 0.44 0.45 0.48 0.48 0.49 0.53 0.64 0.68 0.74 0.78 0.83 0.87
0.38 0.37 0.38 0.38 0.40 0.40 0.40 0.39 0.39 0.40 0.40 0.40 0.38 0.29 0.21 0.24 0.18 0.24 0.31 0.31 0.35 0.38 0.36 0.35 0.37 0.35 0.34 0.40 0.39 0.38 0.35 0.36 0.40 0.41 0.43 0.36 0.29 0.24 0.21 0.21 0.18 0.19 0.21 0.25 0.24 0.29 0.24 0.19 0.19 0.19 0.21 0.21 0.21 0.22 0.21 0.19 0.18 0.16 0.16 0.15 0.15 0.15 0.16 0.17 0.20 0.22 0.25 0.20 0.19 0.21 0.21 0.20 0.20 0.22 0.35 0.47 0.43 0.40 0.45 0.48 0.49 0.54 0.64 0.69 0.74 0.78 0.83 0.88
0.38 0.38 0.38 0.38 0.38 0.39 0.41 0.40 0.39 0.39 0.38 0.39 0.33 0.26 0.25 0.30 0.38 0.41 0.37 0.22 0.33 0.37 0.37 0.35 0.39 0.35 0.42 0.42 0.44 0.43 0.40 0.38 0.36 0.39 0.46 0.34 0.27 0.22 0.22 0.21 0.18 0.19 0.23 0.25 0.24 0.21 0.18 0.16 0.21 0.22 0.26 0.24 0.23 0.20 0.20 0.18 0.17 0.17 0.17 0.16 0.16 0.14 0.17 0.25 0.23 0.23 0.24 0.21 0.21 0.25 0.20 0.19 0.21 0.25 0.39 0.46 0.42 0.47 0.54 0.55 0.54 0.56 0.60 0.66 0.74 0.80 0.83 0.84
0.39 0.38 0.38 0.38 0.38 0.38 0.38 0.40 0.39 0.37 0.34 0.30 0.27 0.26 0.28 0.41 0.46 0.49 0.46 0.33 0.24 0.36 0.32 0.33 0.30 0.31 0.35 0.44 0.44 0.44 0.34 0.30 0.32 0.37 0.40 0.33 0.26 0.24 0.25 0.22 0.20 0.23 0.22 0.22 0.18 0.18 0.16 0.17 0.22 0.24 0.21 0.20 0.20 0.20 0.20 0.19 0.19 0.18 0.16 0.17 0.14 0.18 0.15 0.17 0.20 0.24 0.26 0.23 0.25 0.25 0.20 0.22 0.27 0.31 0.39 0.49 0.48 0.53 0.59 0.60 0.61 0.61 0.62 0.66 0.75 0.81 0.81 0.81
0.38 0.38 0.38 0.38 0.38 0.37 0.38 0.37 0.38 0.35 0.33 0.32 0.26 0.23 0.39 0.43 0.45 0.51 0.42 0.27 0.21 0.25 0.30 0.34 0.35 0.35 0.35 0.35 0.42 0.38 0.31 0.34 0.37 0.35 0.43 0.31 0.23 0.26 0.25 0.22 0.22 0.22 0.19 0.20 0.21 0.20 0.19 0.24 0.26 0.22 0.21 0.20 0.20 0.20 0.19 0.18 0.16 0.17 0.18 0.17 0.17 0.19 0.17 0.21 0.25 0.24 0.26 0.25 0.24 0.21 0.18 0.22 0.27 0.24 0.35 0.45 0.55 0.54 0.53 0.57 0.61 0.65 0.70 0.75 0.81 0.83 0.86 0.81
0.36 0.37 0.37 0.38 0.38 0.38 0.35 0.35 0.28 0.30 0.35 0.30 0.24 0.33 0.41 0.43 0.47 0.58 0.40 0.30 0.29 0.28 0.41 0.39 0.41 0.37 0.41 0.52 0.46 0.32 0.33 0.39 0.37 0.42 0.41 0.30 0.25 0.23 0.23 0.26 0.25 0.19 0.20 0.21 0.21 0.20 0.20 0.22 0.23 0.20 0.20 0.20 0.21 0.19 0.18 0.18 0.15 0.16 0.18 0.20 0.20 0.21 0.20 0.22 0.25 0.24 0.21 0.23 0.25 0.20 0.15 0.16 0.25 0.26 0.27 0.40 0.43 0.40 0.49 0.51 0.52 0.58 0.64 0.72 0.74 0.78 0.83 0.85
0.38 0.37 0.37 0.37 0.38 0.36 0.35 0.26 0.33 0.35 0.24 0.19 0.25 0.38 0.44 0.42 0.50 0.58 0.42 0.23 0.15 0.26 0.35 0.32 0.43 0.34 0.49 0.35 0.42 0.35 0.36 0.30 0.39 0.43 0.41 0.32 0.31 0.24 0.26 0.23 0.22 0.20 0.21 0.21 0.19 0.20 0.21 0.25 0.21 0.20 0.19 0.19 0.20 0.19 0.20 0.18 0.16 0.15 0.16 0.17 0.20 0.24 0.24 0.24 0.24 0.22 0.19 0.17 0.25 0.21 0.18 0.16 0.23 0.23 0.32 0.38 0.35 0.39 0.47 0.51 0.55 0.58 0.63 0.69 0.74 0.77 0.79 0.79
0.40 0.39 0.39 0.38 0.37 0.37 0.23 0.24 0.32 0.26 0.16 0.21 0.34 0.43 0.42 0.41 0.59 0.55 0.32 0.24 0.16 0.29 0.29 0.40 0.37 0.42 0.45 0.40 0.37 0.36 0.19 0.25 0.42 0.44 0.37 0.34 0.26 0.29 0.22 0.22 0.21 0.24 0.24 0.23 0.20 0.17 0.21 0.21 0.20 0.21 0.22 0.21 0.20 0.17 0.21 0.18 0.18 0.16 0.23 0.17 0.20 0.22 0.21 0.23 0.24 0.22 0.21 0.27 0.28 0.23 0.19 0.20 0.19 0.21 0.30 0.37 0.34 0.37 0.45 0.48 0.54 0.57 0.63 0.69 0.74 0.78 0.80 0.81
0.40 0.40 0.40 0.39 0.39 0.38 0.28 0.29 0.25 0.20 0.18 0.27 0.33 0.35 0.41 0.48 0.58 0.58 0.29 0.12 0.10 0.33 0.29 0.35 0.35 0.51 0.45 0.40 0.40 0.27 0.35 0.40 0.28 0.35 0.36 0.32 0.29 0.25 0.23 0.23 0.20 0.19 0.21 0.21 0.13 0.24 0.18 0.20 0.20 0.21 0.22 0.22 0.20 0.21 0.22 0.18 0.18 0.23 0.24 0.22 0.23 0.22 0.22 0.24 0.23 0.23 0.24 0.22 0.19 0.20 0.21 0.17 0.18 0.26 0.26 0.28 0.27 0.33 0.45 0.50 0.50 0.57 0.66 0.71 0.74 0.76 0.80 0.82
0.39 0.40 0.39 0.40 0.39 0.39 0.38 0.31 0.27 0.20 0.27 0.28 0.31 0.34 0.40 0.57 0.52 0.33 0.20 0.10 0.28 0.28 0.46 0.34 0.47 0.42 0.39 0.41 0.33 0.36 0.35 0.39 0.28 0.35 0.35 0.33 0.31 0.29 0.20 0.24 0.23 0.22 0.22 0.19 0.16 0.24 0.21 0.23 0.23 0.24 0.23 0.22 0.24 0.24 0.26 0.24 0.19 0.26 0.27 0.27 0.27 0.25 0.24 0.24 0.23 0.22 0.23 0.19 0.17 0.21 0.22 0.16 0.18 0.24 0.22 0.27 0.29 0.32 0.44 0.47 0.54 0.60 0.62 0.67 0.71 0.76 0.79 0.83
0.39 0.39 0.39 0.39 0.37 0.36 0.36 0.38 0.27 0.27 0.31 0.32 0.33 0.36 0.46 0.48 0.39 0.16 0.14 0.09 0.30 0.21 0.29 0.36 0.36 0.33 0.38 0.30 0.29 0.33 0.34 0.35 0.35 0.37 0.33 0.28 0.28 0.30 0.28 0.30 0.25 0.23 0.21 0.21 0.23 0.28 0.26 0.27 0.29 0.26 0.24 0.26 0.26 0.26 0.26 0.26 0.28 0.31 0.28 0.25 0.23 0.22 0.22 0.22 0.23 0.23 0.22 0.17 0.17 0.24 0.25 0.21 0.18 0.23 0.23 0.24 0.26 0.37 0.40 0.40 0.44 0.51 0.59 0.66 0.71 0.74 0.77 0.79
0.38 0.38 0.37 0.38 0.28 0.33 0.32 0.23 0.30 0.35 0.37 0.36 0.37 0.41 0.44 0.38 0.23 0.17 0.12 0.10 0.26 0.29 0.33 0.33 0.32 0.37 0.34 0.29 0.25 0.32 0.35 0.33 0.33 0.35 0.29 0.31 0.27 0.27 0.28 0.24 0.27 0.23 0.22 0.22 0.21 0.23 0.25 0.26 0.25 0.26 0.29 0.27 0.27 0.24 0.28 0.28 0.28 0.27 0.25 0.23 0.22 0.21 0.22 0.20 0.20 0.22 0.18 0.16 0.21 0.25 0.26 0.22 0.16 0.23 0.28 0.34 0.36 0.35 0.37 0.38 0.38 0.41 0.41 0.45 0.58 0.70 0.76 0.80
0.35 0.35 0.35 0.33 0.34 0.38 0.23 0.21 0.29 0.39 0.41 0.38 0.31 0.34 0.30 0.19 0.22 0.13 0.11 0.23 0.12 0.26 0.26 0.30 0.33 0.34 0.32 0.35 0.30 0.29 0.30 0.33 0.34 0.33 0.30 0.26 0.25 0.23 0.23 0.21 0.21 0.18 0.17 0.19 0.19 0.23 0.22 0.22 0.24 0.27 0.29 0.27 0.24 0.24 0.25 0.27 0.26 0.25 0.24 0.23 0.19 0.17 0.16 0.14 0.17 0.16 0.14 0.15 0.24 0.26 0.23 0.20 0.17 0.33 0.34 0.33 0.37 0.37 0.40 0.42 0.42 0.41 0.41 0.45 0.47 0.55 0.70 0.78
0.32 0.31 0.31 0.32 0.36 0.33 0.34 0.36 0.37 0.38 0.40 0.32 0.26 0.32 0.21 0.15 0.12 0.14 0.13 0.16 0.17 0.28 0.26 0.31 0.33 0.31 0.32 0.31 0.30 0.32 0.33 0.29 0.34 0.34 0.34 0.31 0.27 0.25 0.26 0.25 0.26 0.21 0.17 0.19 0.21 0.22 0.22 0.25 0.24 0.25 0.27 0.28 0.27 0.21 0.23 0.22 0.24 0.23 0.21 0.21 0.17 0.15 0.15 0.12 0.14 0.15 0.16 0.22 0.26 0.25 0.28 0.18 0.22 0.30 0.36 0.37 0.39 0.41 0.43 0.45 0.46 0.44 0.44 0.45 0.46 0.47 0.61 0.73
0.30 0.29 0.28 0.37 0.39 0.40 0.42 0.45 0.41 0.38 0.32 0.30 0.24 0.26 0.20 0.13 0.12 0.24 0.16 0.15 0.18 0.29 0.30 0.28 0.29 0.30 0.30 0.30 0.29 0.31 0.28 0.33 0.34 0.33 0.34 0.31 0.28 0.27 0.27 0.26 0.28 0.23 0.25 0.28 0.20 0.22 0.18 0.19 0.22 0.24 0.22 0.28 0.26 0.25 0.27 0.25 0.24 0.23 0.25 0.23 0.20 0.17 0.16 0.13 0.13 0.13 0.14 0.16 0.24 0.26 0.19 0.17 0.19 0.27 0.35 0.38 0.43 0.46 0.47 0.50 0.51 0.51 0.49 0.48 0.44 0.46 0.59 0.68
0.29 0.30 0.35 0.39 0.39 0.42 0.44 0.45 0.42 0.35 0.29 0.27 0.25 0.22 0.13 0.12 0.13 0.15 0.15 0.16 0.16 0.19 0.24 0.30 0.26 0.26 0.28 0.30 0.34 0.32 0.31 0.30 0.35 0.34 0.32 0.31 0.27 0.28 0.28 0.27 0.28 0.28 0.26 0.22 0.24 0.25 0.21 0.22 0.26 0.27 0.29 0.29 0.25 0.27 0.28 0.28 0.27 0.27 0.26 0.25 0.21 0.20 0.22 0.17 0.21 0.17 0.17 0.17 0.19 0.21 0.18 0.24 0.26 0.38 0.38 0.42 0.46 0.48 0.50 0.50 0.54 0.51 0.52 0.53 0.53 0.55 0.60 0.66
0.30 0.34 0.35 0.34 0.34 0.42 0.45 0.47 0.45 0.32 0.22 0.22 0.21 0.19 0.15 0.14 0.10 0.14 0.15 0.24 0.23 0.15 0.16 0.23 0.25 0.23 0.25 0.27 0.32 0.32 0.33 0.32 0.34 0.34 0.33 0.32 0.34 0.30 0.33 0.33 0.31 0.31 0.29 0.23 0.29 0.20 0.23 0.21 0.29 0.29 0.29 0.28 0.27 0.28 0.27 0.28 0.22 0.28 0.25 0.20 0.22 0.28 0.24 0.21 0.19 0.22 0.19 0.18 0.17 0.25 0.21 0.23 0.31 0.33 0.37 0.42 0.43 0.46 0.50 0.50 0.52 0.53 0.54 0.56 0.55 0.57 0.60 0.64
0.29 0.32 0.30 0.35 0.34 0.41 0.45 0.47 0.45 0.27 0.20 0.19 0.17 0.16 0.20 0.18 0.16 0.16 0.23 0.20 0.24 0.20 0.15 0.12 0.17 0.21 0.22 0.24 0.27 0.31 0.33 0.31 0.34 0.32 0.31 0.35 0.32 0.34 0.34 0.35 0.37 0.35 0.34 0.31 0.29 0.30 0.24 0.21 0.27 0.27 0.24 0.27 0.30 0.29 0.29 0.29 0.29 0.30 0.24 0.25 0.29 0.29 0.27 0.22 0.16 0.19 0.15 0.14 0.16 0.22 0.20 0.20 0.20 0.21 0.34 0.36 0.37 0.40 0.46 0.50 0.52 0.55 0.57 0.56 0.59 0.62 0.64 0.66
0.30 0.30 0.31 0.30 0.35 0.45 0.50 0.48 0.42 0.24 0.15 0.16 0.14 0.16 0.26 0.19 0.23 0.15 0.26 0.21 0.20 0.22 0.19 0.14 0.19 0.20 0.22 0.25 0.27 0.29 0.33 0.30 0.30 0.30 0.29 0.34 0.30 0.38 0.35 0.34 0.37 0.35 0.36 0.37 0.31 0.34 0.29 0.23 0.27 0.29 0.27 0.28 0.29 0.29 0.27 0.29 0.30 0.25 0.26 0.33 0.24 0.21 0.18 0.22 0.20 0.16 0.16 0.14 0.16 0.21 0.21 0.21 0.22 0.24 0.31 0.33 0.35 0.38 0.45 0.53 0.54 0.54 0.57 0.58 0.61 0.65 0.69 0.71
0.31 0.27 0.28 0.33 0.42 0.45 0.48 0.51 0.37 0.21 0.12 0.12 0.14 0.14 0.22 0.23 0.29 0.19 0.23 0.25 0.23 0.22 0.17 0.19 0.18 0.19 0.21 0.23 0.29 0.33 0.33 0.28 0.33 0.30 0.27 0.31 0.28 0.38 0.35 0.36 0.35 0.37 0.37 0.37 0.32 0.36 0.34 0.25 0.26 0.31 0.27 0.27 0.27 0.26 0.21 0.24 0.28 0.29 0.28 0.26 0.30 0.27 0.24 0.22 0.21 0.18 0.19 0.16 0.16 0.17 0.21 0.18 0.23 0.35 0.35 0.36 0.39 0.41 0.47 0.53 0.53 0.57 0.60 0.64 0.66 0.68 0.70 0.72
0.25 0.24 0.26 0.42 0.44 0.46 0.51 0.46 0.33 0.19 0.11 0.10 0.12 0.15 0.26 0.23 0.24 0.25 0.24 0.21 0.22 0.19 0.20 0.21 0.18 0.17 0.16 0.21 0.26 0.28 0.33 0.34 0.33 0.32 0.30 0.36 0.30 0.40 0.35 0.37 0.34 0.35 0.37 0.37 0.34 0.37 0.32 0.33 0.24 0.30 0.31 0.28 0.23 0.25 0.22 0.24 0.24 0.24 0.24 0.23 0.24 0.24 0.29 0.28 0.29 0.24 0.20 0.18 0.18 0.18 0.18 0.19 0.32 0.37 0.38 0.38 0.40 0.42 0.48 0.53 0.57 0.60 0.65 0.67 0.68 0.69 0.70 0.71
0.29 0.22 0.28 0.44 0.49 0.51 0.46 0.39 0.25 0.14 0.10 0.12 0.17 0.20 0.25 0.21 0.29 0.26 0.25 0.26 0.22 0.25 0.23 0.22 0.23 0.19 0.22 0.20 0.21 0.28 0.30 0.33 0.34 0.33 0.32 0.33 0.32 0.30 0.36 0.37 0.36 0.34 0.37 0.36 0.34 0.36 0.31 0.30 0.26 0.29 0.28 0.25 0.25 0.30 0.28 0.28 0.28 0.26 0.26 0.23 0.23 0.22 0.21 0.18 0.17 0.24 0.22 0.20 0.19 0.19 0.18 0.23 0.35 0.41 0.40 0.39 0.42 0.43 0.48 0.56 0.57 0.62 0.64 0.67 0.68 0.69 0.69 0.68
0.26 0.20 0.24 0.45 0.51 0.49 0.36 0.23 0.22 0.24 0.15 0.12 0.15 0.17 0.21 0.28 0.23 0.28 0.26 0.27 0.20 0.22 0.25 0.19 0.21 0.21 0.20 0.19 0.21 0.25 0.27 0.30 0.34 0.33 0.35 0.33 0.36 0.37 0.37 0.41 0.38 0.37 0.35 0.33 0.33 0.42 0.39 0.34 0.30 0.27 0.29 0.28 0.29 0.31 0.31 0.30 0.29 0.28 0.28 0.26 0.27 0.26 0.24 0.22 0.17 0.21 0.23 0.21 0.23 0.21 0.20 0.27 0.40 0.43 0.44 0.44 0.45 0.46 0.52 0.59 0.62 0.65 0.67 0.67 0.68 0.70 0.71 0.73
0.25 0.21 0.38 0.45 0.51 0.46 0.30 0.22 0.27 0.22 0.18 0.19 0.27 0.21 0.25 0.25 0.24 0.29 0.25 0.26 0.20 0.20 0.21 0.18 0.19 0.20 0.20 0.19 0.22 0.21 0.24 0.27 0.30 0.32 0.34 0.37 0.41 0.45 0.43 0.42 0.41 0.37 0.37 0.36 0.38 0.38 0.43 0.32 0.30 0.30 0.31 0.32 0.33 0.33 0.34 0.31 0.29 0.27 0.27 0.29 0.29 0.26 0.27 0.25 0.23 0.23 0.24 0.24 0.20 0.19 0.18 0.25 0.39 0.45 0.46 0.47 0.49 0.52 0.57 0.63 0.67 0.69 0.71 0.71 0.71 0.74 0.75 0.74
0.28 0.28 0.33 0.44 0.53 0.48 0.28 0.19 0.21 0.19 0.20 0.29 0.27 0.25 0.27 0.25 0.27 0.26 0.23 0.28 0.24 0.23 0.19 0.21 0.21 0.19 0.23 0.24 0.21 0.19 0.25 0.21 0.29 0.30 0.33 0.38 0.39 0.46 0.46 0.47 0.46 0.39 0.39 0.38 0.35 0.44 0.34 0.35 0.33 0.27 0.26 0.27 0.28 0.30 0.29 0.30 0.29 0.28 0.28 0.30 0.29 0.29 0.29 0.31 0.28 0.29 0.23 0.24 0.24 0.20 0.18 0.28 0.37 0.45 0.48 0.49 0.50 0.51 0.57 0.66 0.72 0.71 0.73 0.72 0.71 0.72 0.72 0.74
0.30 0.38 0.35 0.40 0.46 0.43 0.30 0.33 0.27 0.24 0.22 0.24 0.26 0.23 0.25 0.24 0.27 0.29 0.31 0.27 0.23 0.21 0.20 0.21 0.22 0.24 0.20 0.22 0.21 0.23 0.24 0.24 0.31 0.31 0.35 0.35 0.36 0.42 0.44 0.45 0.47 0.45 0.46 0.47 0.43 0.42 0.37 0.36 0.32 0.25 0.22 0.20 0.19 0.20 0.21 0.23 0.25 0.28 0.29 0.29 0.28 0.28 0.28 0.25 0.21 0.23 0.21 0.22 0.24 0.21 0.20 0.35 0.42 0.46 0.45 0.48 0.49 0.51 0.58 0.65 0.72 0.75 0.73 0.71 0.70 0.68 0.69 0.73
0.21 0.19 0.26 0.35 0.42 0.41 0.40 0.43 0.38 0.33 0.25 0.23 0.23 0.27 0.26 0.25 0.28 0.29 0.30 0.27 0.27 0.23 0.22 0.23 0.23 0.22 0.22 0.21 0.20 0.20 0.23 0.28 0.28 0.32 0.31 0.32 0.35 0.39 0.42 0.45 0.45 0.45 0.46 0.47 0.47 0.44 0.37 0.38 0.35 0.32 0.30 0.28 0.28 0.29 0.32 0.31 0.28 0.24 0.26 0.27 0.28 0.29 0.29 0.28 0.27 0.22 0.20 0.25 0.23 0.24 0.28 0.31 0.36 0.41 0.42 0.46 0.49 0.50 0.55 0.61 0.62 0.66 0.71 0.73 0.71 0.70 0.70 0.71
0.27 0.19 0.21 0.19 0.36 0.36 0.35 0.39 0.36 0.38 0.33 0.31 0.22 0.26 0.23 0.24 0.28 0.26 0.29 0.25 0.26 0.25 0.24 0.22 0.22 0.21 0.21 0.20 0.24 0.22 0.23 0.26 0.29 0.32 0.32 0.33 0.34 0.36 0.40 0.41 0.44 0.47 0.47 0.45 0.47 0.45 0.41 0.36 0.36 0.36 0.34 0.34 0.35 0.32 0.32 0.32 0.29 0.28 0.28 0.28 0.29 0.28 0.29 0.28 0.24 0.23 0.32 0.25 0.22 0.33 0.32 0.29 0.33 0.38 0.41 0.44 0.49 0.52 0.55 0.58 0.63 0.67 0.70 0.70 0.69 0.68 0.67 0.68
0.19 0.22 0.30 0.30 0.26 0.23 0.29 0.33 0.40 0.37 0.41 0.36 0.28 0.28 0.25 0.23 0.23 0.23 0.28 0.28 0.30 0.28 0.24 0.24 0.22 0.22 0.23 0.23 0.25 0.21 0.23 0.26 0.30 0.28 0.33 0.34 0.33 0.36 0.35 0.38 0.38 0.41 0.44 0.41 0.47 0.41 0.36 0.32 0.37 0.37 0.36 0.36 0.37 0.36 0.35 0.33 0.33 0.32 0.31 0.31 0.29 0.30 0.30 0.28 0.27 0.29 0.31 0.25 0.21 0.34 0.35 0.30 0.35 0.39 0.43 0.46 0.49 0.51 0.54 0.59 0.64 0.69 0.70 0.69 0.67 0.64 0.62 0.61
0.23 0.25 0.27 0.33 0.27 0.31 0.34 0.39 0.42 0.40 0.42 0.42 0.34 0.29 0.24 0.23 0.24 0.26 0.29 0.27 0.28 0.28 0.26 0.21 0.21 0.22 0.23 0.26 0.26 0.23 0.25 0.21 0.22 0.31 0.33 0.34 0.34 0.34 0.32 0.35 0.38 0.41 0.41 0.40 0.42 0.46 0.37 0.33 0.36 0.36 0.33 0.35 0.36 0.37 0.37 0.35 0.32 0.33 0.32 0.31 0.32 0.31 0.30 0.30 0.30 0.33 0.32 0.31 0.33 0.36 0.35 0.33 0.38 0.41 0.45 0.49 0.52 0.53 0.56 0.60 0.64 0.64 0.65 0.65 0.65 0.63 0.60 0.59
0.18 0.24 0.20 0.28 0.29 0.31 0.36 0.43 0.43 0.41 0.38 0.43 0.32 0.29 0.26 0.25 0.25 0.26 0.29 0.29 0.25 0.27 0.30 0.25 0.25 0.24 0.25 0.26 0.27 0.24 0.26 0.27 0.28 0.26 0.32 0.35 0.35 0.36 0.35 0.35 0.35 0.39 0.40 0.40 0.40 0.44 0.37 0.34 0.36 0.34 0.31 0.30 0.33 0.36 0.37 0.35 0.34 0.31 0.33 0.34 0.34 0.34 0.33 0.32 0.32 0.32 0.34 0.33 0.35 0.34 0.33 0.33 0.42 0.47 0.46 0.50 0.52 0.54 0.55 0.54 0.56 0.60 0.62 0.62 0.61 0.60 0.58 0.56
0.28 0.30 0.29 0.24 0.18 0.24 0.32 0.37 0.40 0.40 0.37 0.39 0.35 0.33 0.31 0.28 0.28 0.32 0.30 0.31 0.29 0.27 0.28 0.26 0.29 0.29 0.27 0.26 0.27 0.26 0.29 0.29 0.30 0.31 0.34 0.35 0.31 0.36 0.35 0.36 0.37 0.37 0.37 0.39 0.40 0.42 0.40 0.37 0.39 0.36 0.29 0.29 0.33 0.33 0.34 0.35 0.34 0.32 0.31 0.33 0.33 0.33 0.30 0.32 0.30 0.33 0.31 0.29 0.32 0.32 0.30 0.32 0.41 0.47 0.48 0.49 0.49 0.49 0.49 0.51 0.53 0.55 0.56 0.56 0.55 0.53 0.52 0.52
0.33 0.31 0.31 0.27 0.16 0.21 0.24 0.30 0.35 0.37 0.32 0.39 0.41 0.40 0.34 0.31 0.34 0.37 0.31 0.33 0.33 0.33 0.32 0.31 0.31 0.32 0.28 0.26 0.26 0.28 0.31 0.32 0.32 0.34 0.35 0.36 0.37 0.38 0.37 0.37 0.37 0.36 0.37 0.36 0.41 0.38 0.38 0.35 0.32 0.32 0.27 0.28 0.33 0.34 0.34 0.34 0.34 0.30 0.30 0.33 0.35 0.35 0.35 0.36 0.37 0.37 0.38 0.38 0.31 0.30 0.32 0.38 0.42 0.46 0.44 0.45 0.47 0.48 0.48 0.50 0.51 0.52 0.52 0.51 0.51 0.51 0.50 0.50
Wind_Speed
18 18 18 19 19 19 19 19 19 19 18 18 18 18 18 18 18 18 18 18 18 18 18 18 18 19 19 19 19 19 20 21 21 21 22 21 20 20 19 19 20 21 20 20 20 20 20 20 20 19 19 18 18 18 18 17 17 16 16 16 16 16 15 14 14 13 12 10 9 9 9 9 8 9 10 11 12 13 13 12 11 10 9 9 8 10 11 11
17 17 18 18 18 19 19 19 19 19 19 18 18 18 18 18 18 18 18 18 18 18 18 18 18 18 18 18 18 18 19 20 21 22 22 20 19 19 19 19 20 21 20 20 21 21 20 20 20 20 20 19 18 18 18 18 18 18 16 16 17 15 14 14 13 13 13 11 10 9 9 9 8 9 10 11 12 13 13 12 12 11 9 9 9 10 11 11
16 17 17 17 18 18 19 19 19 19 19 19 18 18 18 18 18 18 18 17 17 17 17 17 17 17 18 18 18 18 18 19 20 19 18 17 18 18 18 18 19 20 20 19 20 20 20 20 20 21 20 19 19 19 19 18 18 19 17 16 17 15 14 15 15 14 13 12 11 10 10 9 9 9 11 11 12 13 13 12 13 12 11 11 10 11 11 11
16 16 17 17 17 18 18 18 19 19 19 19 19 19 18 18 18 18 18 17 17 17 17 17 17 17 17 17 17 17 17 18 17 15 15 15 16 17 17 18 19 20 19 19 20 20 20 20 20 21 21 20 19 20 20 18 18 18 18 17 15 15 16 15 15 15 13 13 12 11 10 10 9 10 11 11 12 12 12 12 13 13 13 12 11 12 11 12
16 16 16 17 17 17 17 18 18 19 19 19 19 19 19 18 18 18 18 17 17 16 16 16 16 16 16 16 16 16 16 16 15 14 14 15 15 16 16 17 19 19 18 18 19 19 19 20 21 21 21 20 20 20 20 20 19 17 19 19 16 15 16 14 14 14 14 13 13 12 11 10 10 11 11 12 12 11 11 11 12 12 13 13 12 12 12 12
16 16 16 16 17 17 17 17 18 18 18 19 19 19 19 19 18 18 18 17 17 16 16 16 16 16 16 16 16 16 16 14 13 14 14 14 15 15 16 17 19 19 18 18 18 19 20 20 21 21 21 20 20 21 20 21 20 18 19 19 18 18 17 15 15 15 14 15 14 13 12 11 12 11 12 14 12 10 10 11 11 12 12 13 12 13 13 13
16 16 16 16 16 17 17 17 17 18 18 18 18 18 19 19 19 18 18 17 17 16 16 16 16 15 15 15 15 16 17 16 14 14 14 15 15 15 15 16 18 18 18 18 18 19 20 21 21 21 21 20 21 21 21 20 21 20 18 18 20 20 19 18 17 16 15 16 15 14 13 13 14 12 12 14 13 11 12 12 12 12 12 12 12 13 13 13
16 16 16 16 16 16 16 17 17 17 18 18 18 18 18 19 19 18 18 18 17 16 16 16 16 15 15 15 15 16 17 16 15 15 15 15 15 15 15 16 17 18 18 19 19 19 19 21 22 21 21 20 21 21 21 20 21 22 20 18 19 19 20 19 18 17 17 17 16 16 16 15 14 13 13 15 13 12 13 12 13 12 12 12 13 13 13 13
15 16 16 16 16 16 16 16 17 17 17 17 18 18 18 18 19 18 18 18 17 17 16 16 16 15 15 15 16 17 16 15 15 15 15 15 16 16 16 16 17 18 18 18 18 19 19 20 21 21 21 20 21 21 21 21 20 22 22 19 19 20 19 20 19 19 18 18 17 17 17 16 14 14 15 15 13 13 13 13 13 13 12 13 13 13 13 12
15 15 16 16 16 16 16 16 16 16 17 17 17 18 18 18 18 18 18 18 17 17 16 16 16 16 16 16 17 17 15 15 15 15 15 16 16 17 17 17 17 18 18 18 18 19 19 19 20 20 20 20 21 21 22 22 18 19 22 20 20 20 19 20 19 19 18 18 18 18 18 16 15 15 15 15 14 14 13 13 13 13 13 13 13 13 12 12
15 15 16 16 16 16 16 16 16 16 17 17 17 17 17 17 18 18 18 17 17 17 16 16 16 16 17 17 18 17 15 16 15 15 16 16 16 17 17 17 18 18 18 18 18 19 19 19 19 19 19 19 20 20 21 22 18 18 20 20 20 21 20 20 20 19 18 18 19 19 18 16 16 17 15 14 14 15 14 14 14 14 13 13 13 13 12 12
15 16 16 16 16 16 16 16 16 16 16 16 17 17 17 17 17 17 17 17 17 17 16 16 16 16 17 17 19 17 16 17 15 15 16 16 17 17 17 17 18 18 18 18 18 18 18 18 19 19 17 17 19 19 20 21 20 19 19 19 19 20 20 21 21 19 18 18 18 18 18 18 19 18 16 14 15 15 15 14 14 14 13 13 13 13 12 12
16 16 16 16 16 16 16 16 16 16 16 16 16 16 16 16 16 16 16 17 17 16 16 16 16 16 16 17 17 16 17 17 16 16 16 16 16 17 17 17 17 18 18 18 18 18 18 17 19 19 17 17 17 16 17 19 20 19 19 19 18 18 20 21 20 19 19 17 17 17 17 18 20 20 17 15 16 15 15 15 14 13 13 13 13 13 13 13
16 16 16 16 16 16 16 16 16 16 16 16 16 16 16 15 15 16 16 16 16 16 16 15 15 15 16 17 16 16 17 17 17 17 16 16 16 16 17 17 17 17 17 17 17 17 17 17 17 17 17 17 16 16 16 18 19 19 19 18 18 18 17 19 20 19 19 17 17 18 17 16 18 19 18 16 16 16 15 15 14 13 13 14 14 14 13 12
16 16 16 16 16 16 16 16 16 16 16 16 16 16 15 15 15 15 15 15 15 15 15 15 15 14 16 17 15 15 16 17 17 18 17 17 16 15 16 17 17 16 16 15 15 16 17 17 16 16 17 17 16 17 17 17 18 18 18 18 19 18 16 17 18 20 19 17 18 19 17 15 15 15 16 16 17 16 16 15 14 14 14 14 15 14 13 11
16 16 16 16 16 16 16 16 16 16 16 16 16 15 15 14 14 14 14 14 15 15 14 14 14 14 15 14 13 14 15 15 16 16 17 17 16 15 16 16 16 15 15 15 14 15 16 17 16 15 16 16 17 18 17 17 18 18 19 18 18 20 17 15 17 20 19 17 18 20 17 15 13 13 15 16 17 17 16 16 15 14 15 15 15 14 14 12
17 17 17 17 16 16 16 16 16 16 16 16 16 15 14 13 13 13 13 14 14 14 14 13 12 13 14 13 13 13 13 13 14 15 16 16 15 15 15 15 15 15 14 14 14 15 16 16 15 15 16 16 17 17 17 17 17 17 19 18 17 19 19 15 16 18 19 18 18 20 19 16 13 13 15 16 17 17 17 17 16 15 15 16 15 15 15 13
17 17 17 17 17 17 16 16 16 16 16 16 15 14 13 12 12 13 13 13 13 12 13 12 12 12 13 13 13 12 12 12 13 13 14 15 14 15 15 14 14 14 14 14 14 15 15 15 15 14 16 16 17 17 17 16 16 17 18 18 17 18 19 17 14 16 18 19 19 18 19 19 15 14 15 16 17 17 17 16 16 15 15 16 16 16 15 14
18 18 17 17 17 17 17 16 16 16 16 15 14 13 12 11 12 12 13 12 12 13 12 12 12 12 11 13 14 13 12 12 13 13 14 14 13 14 14 14 14 15 15 14 14 15 14 14 15 15 15 16 17 18 17 14 15 16 17 18 17 17 18 18 14 13 16 17 18 18 18 18 17 16 16 17 17 18 17 16 16 16 16 17 17 16 16 15
18 18 18 18 17 17 17 17 16 16 16 15 13 12 12 11 11 11 11 13 14 15 15 14 15 15 14 13 13 13 13 13 14 14 15 14 13 13 14 14 14 15 14 13 13 14 14 14 15 16 16 16 18 18 15 13 13 14 15 16 16 15 16 17 15 13 15 16 17 18 17 18 17 17 17 17 18 18 18 17 17 16 17 17 18 17 16 15
18 18 18 18 18 18 17 17 17 16 16 14 13 13 12 12 11 11 11 14 16 17 18 17 17 17 16 13 12 12 13 14 14 14 15 15 14 14 13 15 15 14 14 13 12 12 13 14 15 15 15 14 16 16 15 14 14 14 15 15 16 16 15 15 14 13 14 15 16 16 17 17 17 16 17 18 18 19 19 19 18 18 18 18 19 18 16 15
19 19 19 19 18 18 18 18 17 16 15 14 13 13 13 12 11 11 12 14 15 16 18 18 17 17 16 15 14 13 13 14 14 14 15 16 16 14 14 15 15 14 14 12 12 12 13 14 15 14 13 13 13 14 15 15 15 15 15 15 15 16 15 13 13 13 13 14 14 14 15 16 16 16 17 18 18 17 18 19 18 18 19 19 18 18 16 15
19 19 19 19 19 19 18 18 17 16 15 14 14 14 12 11 11 12 12 13 14 14 16 17 17 16 16 16 16 15 15 15 15 15 16 16 16 15 14 15 15 13 14 14 13 13 13 13 14 13 12 13 13 14 15 15 15 16 15 15 14 15 15 13 13 14 13 13 13 13 14 15 15 16 17 18 18 17 16 17 18 18 19 19 18 17 17 16
19 19 19 19 19 19 18 18 18 16 15 15 15 14 13 12 12 12 12 13 14 12 12 14 15 15 15 14 15 17 17 16 15 15 17 17 16 15 15 15 15 13 14 15 15 14 12 10 11 12 13 14 14 14 16 15 15 16 16 16 14 14 15 12 11 13 13 12 13 13 14 14 15 16 17 17 17 16 15 16 18 18 19 18 18 18 17 16
19 19 20 20 20 19 19 18 17 15 15 16 16 14 13 13 12 12 12 12 13 11 11 12 13 13 13 12 14 16 16 16 16 16 17 18 17 15 14 15 14 14 15 16 15 14 12 9 10 13 13 14 14 14 16 16 15 15 17 18 15 14 15 12 10 11 13 13 13 13 13 13 14 15 16 16 16 16 15 16 18 18 19 19 18 18 18 17
19 20 20 20 20 20 19 17 15 15 16 16 14 13 13 14 12 11 12 12 12 10 9 10 11 11 12 13 14 15 15 16 16 16 17 18 17 15 14 14 14 13 14 14 14 13 12 10 11 13 13 14 14 14 15 16 15 14 16 18 17 14 14 13 12 12 13 12 11 13 13 10 12 14 15 16 16 16 15 16 17 18 19 18 18 18 18 16
20 20 20 20 20 19 18 16 16 17 17 15 13 13 14 14 12 11 11 12 11 10 9 10 9 10 11 13 16 15 13 14 15 16 18 18 17 16 14 14 14 13 13 13 13 13 13 13 13 13 13 12 13 13 14 16 15 12 13 17 18 16 14 14 14 13 11 9 10 13 13 11 12 14 14 15 16 16 16 16 17 18 19 18 18 17 17 16
21 21 21 21 20 19 18 18 18 18 16 15 15 15 14 13 12 11 11 11 9 9 9 9 9 10 11 13 17 15 11 12 15 16 18 18 17 17 15 15 14 14 14 14 12 11 13 15 14 14 13 11 11 11 12 16 15 9 10 14 15 15 15 14 14 13 11 10 12 13 13 12 12 12 13 15 16 16 16 16 17 18 18 18 17 17 17 16
22 22 21 21 21 20 19 19 19 18 17 16 16 16 14 13 12 11 11 11 9 8 9 8 9 11 11 13 17 16 12 13 14 14 18 19 17 16 15 14 15 14 14 16 13 9 11 14 13 14 12 10 9 9 11 16 14 9 10 13 13 13 13 13 13 12 11 12 13 12 12 12 11 12 14 15 15 15 14 15 15 16 17 17 17 16 17 16
22 22 21 21 20 19 18 19 19 19 18 17 17 16 15 14 13 13 12 11 9 9 9 10 10 11 12 14 17 17 14 13 13 14 17 18 18 17 14 13 14 14 13 16 15 10 10 11 11 13 12 9 8 8 10 14 13 10 12 13 12 12 11 11 12 11 11 13 13 11 12 12 10 12 14 13 12 12 12 13 13 13 15 16 16 16 17 16
22 22 21 20 19 18 18 18 17 17 17 17 16 16 15 15 15 15 13 10 10 10 10 10 10 11 13 15 17 17 16 13 14 17 17 17 18 17 15 14 14 14 14 15 15 14 13 13 12 13 12 10 9 9 10 12 12 12 13 13 12 11 11 11 11 11 12 12 10 10 11 13 11 11 12 12 11 11 11 12 12 12 13 14 15 16 16 16
22 22 21 20 19 18 18 18 17 16 17 17 17 17 16 16 17 17 13 10 11 11 10 10 10 11 13 15 17 18 17 14 15 17 18 17 18 18 17 16 15 15 14 14 15 15 15 15 14 13 13 13 12 11 10 12 13 13 13 13 13 11 11 12 12 12 13 11 9 10 11 13 12 10 11 11 11 11 11 11 11 11 12 12 14 15 16 16
22 21 20 19 18 18 18 18 18 18 18 18 18 17 17 18 18 17 15 13 10 9 10 11 11 10 12 14 16 18 19 16 16 17 18 18 17 18 19 17 17 16 13 14 14 14 14 15 16 15 13 15 14 12 12 13 14 15 15 14 13 11 11 12 12 12 13 10 8 10 11 13 13 10 10 11 11 11 11 11 11 11 12 12 12 14 15 16
21 20 18 16 16 17 18 18 18 18 18 18 19 18 20 21 18 15 17 16 13 11 11 11 12 12 13 14 15 17 19 18 17 17 18 18 17 18 19 18 19 17 13 13 14 14 15 14 16 17 14 15 17 15 13 13 15 16 15 14 14 12 11 11 11 12 13 11 10 11 12 13 13 11 10 11 11 12 12 11 12 12 12 12 12 13 14 15
21 19 16 15 16 17 17 18 18 17 18 18 19 20 22 21 18 16 16 17 16 15 14 13 13 14 14 14 14 17 18 17 18 18 17 19 18 17 18 18 19 19 16 14 13 14 16 13 14 15 13 14 16 15 14 14 15 15 14 14 14 13 11 10 9 9 10 10 11 12 12 12 11 11 11 13 12 12 12 12 12 12 12 12 12 12 12 13
19 16 15 15 16 16 17 18 17 17 18 19 20 22 22 20 17 16 16 15 16 16 16 15 15 15 15 14 14 16 18 17 18 19 17 18 19 19 18 17 19 19 18 15 13 14 16 13 12 14 14 15 15 14 15 15 14 14 16 16 13 12 11 10 9 9 10 12 11 12 13 12 12 12 13 14 13 12 12 12 12 12 12 12 12 12 13 13
17 16 15 15 16 17 17 17 17 18 19 20 21 22 21 20 18 16 15 15 15 16 16 16 16 15 15 15 15 16 17 17 18 19 18 18 18 19 19 18 18 20 19 17 15 13 14 14 13 15 16 15 15 15 16 16 14 14 16 16 12 12 13 12 11 10 12 13 11 12 15 14 13 13 13 14 14 12 12 12 12 12 12 13 13 13 14 13
16 15 14 15 17 17 16 16 17 18 19 20 22 22 20 20 19 18 17 16 16 16 17 17 15 15 16 15 14 15 17 17 18 19 18 18 16 17 19 18 18 20 20 19 16 14 15 14 12 14 15 15 16 17 16 17 17 15 14 14 14 14 14 14 13 12 12 13 12 13 15 15 14 13 12 14 13 12 12 12 12 12 13 13 13 13 14 14
16 15 14 15 17 16 15 15 16 17 19 21 22 21 21 20 20 19 19 18 17 17 17 17 16 15 16 16 14 14 16 17 17 18 18 17 16 15 16 17 17 18 19 19 17 15 15 15 12 12 13 14 16 18 18 17 18 17 15 15 15 14 13 13 14 13 13 13 12 13 14 14 13 11 11 12 12 12 13 13 13 12 12 13 13 14 14 15
15 14 14 15 15 14 13 14 15 17 19 20 21 20 19 20 20 21 21 20 19 18 18 17 16 16 16 16 15 15 16 16 16 17 17 16 16 15 15 15 17 17 17 18 18 16 16 16 14 12 13 14 15 17 18 16 17 18 19 18 17 16 15 14 14 14 13 13 12 12 13 12 11 11 11 12 12 12 13 13 13 13 12 12 13 13 13 13
15 14 14 15 14 13 13 14 15 17 19 20 20 20 19 19 19 20 22 22 21 20 19 18 18 17 16 16 16 15 16 17 17 17 17 16 16 14 13 14 15 16 16 18 18 17 16 17 16 14 14 15 14 13 14 15 15 16 18 18 18 17 16 16 16 15 15 15 13 13 13 10 9 11 12 11 12 13 14 13 13 12 12 12 11 11 11 11
14 12 13 15 14 13 13 14 15 16 18 18 19 20 19 19 19 18 19 21 22 21 21 21 20 19 18 17 17 16 16 17 17 17 17 17 16 14 12 13 14 15 16 16 16 16 15 16 17 17 15 14 13 12 14 14 15 16 17 17 17 18 18 17 16 14 15 16 15 14 13 10 9 11 11 12 12 13 14 13 12 12 12 11 10 9 9 9
13 12 13 15 13 13 13 13 13 15 17 17 18 19 20 20 20 19 19 19 20 21 21 21 21 20 19 18 18 17 17 17 17 17 17 17 16 14 14 14 14 13 14 14 15 15 16 16 17 18 16 14 14 14 15 15 16 17 17 17 17 18 18 17 16 13 13 15 15 15 14 11 10 11 12 12 12 12 13 13 12 13 12 11 10 9 8 8
13 12 12 14 13 11 12 12 12 13 15 16 17 18 19 19 19 19 19 19 18 19 19 20 20 20 19 18 18 18 17 17 17 16 16 16 15 15 16 16 16 14 13 13 13 15 16 16 17 18 17 16 16 16 16 17 17 17 16 16 17 18 18 18 17 15 16 17 17 16 13 11 11 12 12 12 12 13 12 12 12 13 13 11 10 9 9 9
13 12 12 13 12 10 10 11 12 13 13 15 15 15 17 18 17 17 18 17 17 18 18 18 18 19 19 19 19 19 18 17 16 15 15 15 15 14 15 17 18 17 16 14 13 14 15 15 16 17 16 15 15 15 15 16 16 15 15 16 16 17 18 18 18 18 18 18 18 17 13 10 10 12 12 12 13 13 12 12 11 12 12 12 10 10 10 10
13 12 12 12 12 10 8 9 11 12 12 12 13 13 14 16 16 16 17 16 16 17 17 17 17 18 19 19 20 19 19 18 17 15 15 15 15 14 14 15 16 16 16 16 14 13 14 14 15 16 14 13 12 11 12 13 14 13 13 14 15 16 17 18 18 18 17 16 17 16 13 12 12 12 12 12 13 13 12 12 11 11 12 12 11 10 10 10
13 13 13 13 12 11 9 8 7 8 10 11 11 11 12 15 15 15 15 16 15 16 16 16 16 17 18 19 19 19 18 18 18 16 15 15 14 14 13 14 13 13 14 15 15 14 14 14 14 15 14 13 11 10 10 12 12 11 11 12 12 14 15 17 17 16 15 16 16 14 13 13 13 13 13 13 13 13 12 12 12 12 12 12 11 11 10 10
13 13 14 14 13 11 8 6 4 3 5 8 9 9 10 12 13 13 14 15 15 15 15 15 14 15 16 17 18 18 17 17 17 16 16 15 15 15 14 13 13 13 15 15 15 15 15 15 15 14 13 13 13 11 11 11 11 10 10 10 10 11 12 13 14 13 14 15 14 12 13 13 13 14 14 14 14 13 13 13 13 13 13 12 12 11 11 10
13 13 13 13 12 10 7 4 3 3 1 4 6 6 7 9 10 11 12 13 13 13 13 14 13 13 14 16 16 16 16 16 16 16 16 16 15 15 15 14 13 14 15 15 15 15 14 14 15 15 13 13 13 12 12 12 12 12 11 11 10 10 10 11 12 12 11 12 12 12 12 12 13 15 15 14 14 13 13 13 13 13 13 12 12 12 11 11
13 13 13 13 12 10 7 4 4 5 3 2 4 4 5 7 8 9 9 10 11 11 11 11 11 11 12 13 14 14 14 15 15 15 16 16 16 15 15 14 14 15 15 15 15 15 14 14 15 15 13 13 13 13 12 12 13 14 14 14 13 12 12 12 12 12 11 11 11 12 12 13 14 15 15 15 14 14 13 13 13 13 13 13 12 12 12 11
14 14 13 13 12 9 7 6 4 5 6 4 3 3 4 4 6 8 9 8 9 9 9 10 11 11 10 10 11 12 13 14 15 15 15 16 16 16 15 15 14 15 16 16 16 16 15 15 15 16 15 15 15 15 14 13 14 16 18 18 16 15 15 14 13 13 13 13 13 13 13 14 15 15 15 15 14 13 13 13 13 13 13 13 13 12 12 12
14 13 13 13 12 9 7 6 5 5 6 6 4 3 3 3 4 6 9 8 7 7 7 8 10 10 10 9 10 11 13 14 15 15 16 16 16 16 16 15 15 15 16 16 16 16 16 15 16 17 16 16 16 16 16 15 15 17 18 18 18 17 17 16 16 15 15 15 15 14 14 14 15 16 16 15 14 14 13 13 14 14 13 13 13 13 13 13
Wind_Direction
293 292 290 288 286 284 284 284 284 283 282 282 282 283 284 285 284 283 281 279 278 276 275 274 272 270 268 267 265 263 262 260 257 253 251 249 247 244 242 241 235 230 230 229 225 224 224 226 225 225 227 228 230 231 227 228 229 228 232 234 236 235 234 234 232 235 236 234 241 240 243 245 233 224 217 213 212 207 212 219 220 226 232 231 220 205 204 211
295 294 292 290 287 285 284 283 283 282 281 281 282 283 283 284 284 283 282 280 278 277 276 274 272 270 268 267 265 264 262 260 257 253 250 247 245 241 238 239 231 226 228 226 223 222 223 224 223 223 226 228 228 227 225 226 227 228 232 234 235 235 234 233 236 238 237 240 244 239 240 240 232 221 215 214 209 207 212 215 218 219 218 216 210 208 211 215
298 296 294 292 290 287 285 283 282 282 281 281 281 282 283 283 282 281 281 280 279 278 276 274 272 270 268 266 264 263 262 260 256 249 246 244 240 237 236 235 228 225 227 226 224 224 225 224 221 222 225 228 227 226 225 225 226 229 232 233 235 236 235 234 236 236 235 241 242 239 238 234 230 225 220 218 210 209 214 214 216 215 210 211 213 216 218 220
301 299 297 295 292 289 287 285 282 281 281 280 280 281 282 282 281 280 280 279 278 277 276 275 272 269 268 265 264 262 261 258 250 242 241 243 238 234 234 231 225 224 227 228 226 227 228 224 221 223 226 228 227 226 226 223 225 229 229 233 237 234 234 233 232 234 234 237 240 240 238 234 232 230 225 218 211 213 217 213 216 217 211 211 217 221 223 228
304 302 301 298 295 292 289 287 284 282 281 281 280 279 280 280 279 278 277 277 276 276 276 274 272 270 267 265 263 260 258 253 244 241 243 242 237 232 232 229 223 223 227 226 225 227 228 225 223 225 227 228 226 227 227 223 226 230 229 233 237 232 232 232 230 233 234 233 236 238 238 236 232 232 226 220 218 218 219 218 221 222 215 214 220 223 228 234
305 305 303 301 298 295 292 289 287 285 283 282 280 279 278 278 277 276 275 275 275 275 275 274 272 270 267 265 262 255 252 249 243 244 245 241 236 231 230 227 222 224 226 224 224 225 225 224 224 225 228 228 227 227 226 223 225 231 231 232 234 233 233 234 232 232 233 234 235 235 237 236 232 231 225 224 226 225 226 230 230 227 221 220 224 227 231 234
305 306 305 304 301 298 295 292 289 287 285 283 281 280 278 276 275 274 273 273 273 274 273 273 272 270 268 265 258 251 248 248 246 246 245 239 233 229 229 225 222 224 224 223 223 224 224 224 224 226 227 228 228 226 226 224 225 230 232 231 232 234 234 236 236 233 234 236 236 236 237 235 232 232 227 226 229 230 235 237 233 228 223 225 228 230 233 234
304 305 305 305 303 301 298 295 292 289 286 284 283 281 279 276 273 271 271 271 272 272 272 271 270 269 268 264 257 251 247 247 247 246 243 235 230 227 226 224 223 224 224 224 224 224 226 225 226 227 228 229 228 226 225 226 227 230 232 232 231 233 234 236 237 236 236 236 236 236 236 234 232 234 232 228 228 232 238 236 230 226 224 227 230 232 235 236
304 304 305 305 304 303 301 298 295 292 288 286 284 281 279 276 273 270 268 270 271 271 272 270 269 267 265 262 258 254 247 246 248 245 239 233 228 226 226 228 227 225 226 227 227 227 227 227 227 227 230 230 228 226 225 227 230 230 230 232 232 233 235 235 236 236 236 235 234 234 234 233 231 234 234 229 228 232 235 233 227 225 226 229 231 233 236 237
304 304 304 304 304 304 303 301 299 296 292 288 286 283 280 276 272 269 267 268 269 271 271 269 268 266 263 260 256 253 247 245 246 243 237 231 227 226 229 231 228 227 228 229 229 229 229 230 228 229 234 232 228 227 225 227 233 231 230 232 234 235 235 235 235 235 236 235 232 233 235 232 228 232 234 228 227 231 231 230 228 228 229 230 231 233 235 235
304 304 304 304 303 303 303 303 302 299 296 292 289 286 282 277 272 268 266 267 268 270 271 270 268 264 261 258 254 252 247 244 245 241 237 231 227 228 231 231 229 229 230 230 231 230 230 232 229 228 233 231 227 227 226 228 232 231 230 233 234 235 236 235 235 234 234 234 231 232 236 233 227 231 233 226 224 229 229 228 228 230 231 231 231 231 233 234
302 303 303 302 302 302 302 303 303 302 300 295 291 288 284 279 273 268 266 265 266 268 271 270 267 264 261 257 252 251 247 244 243 240 237 233 230 232 233 232 231 231 231 231 231 230 231 232 228 227 231 229 225 227 229 228 230 231 230 233 232 233 235 233 233 232 232 232 228 230 235 233 229 230 230 224 224 227 227 227 227 230 231 230 229 228 231 233
301 301 301 301 301 301 302 302 303 303 302 299 294 291 286 280 274 268 265 263 263 265 269 270 268 264 260 255 251 249 247 244 242 239 235 234 234 234 233 231 232 233 234 234 233 230 230 230 228 229 230 228 225 227 229 225 228 229 229 233 231 231 235 230 228 229 229 229 225 228 236 235 230 229 227 225 225 226 226 227 226 228 229 227 226 225 228 231
300 300 300 300 300 300 301 301 302 303 304 301 297 293 288 282 275 269 265 262 262 263 266 268 267 263 257 254 252 250 247 243 240 237 234 233 234 234 231 230 232 233 234 236 234 230 228 228 230 230 228 229 228 226 227 224 226 227 226 230 230 233 233 223 223 225 226 227 224 228 237 239 230 224 225 225 225 226 227 226 226 227 226 224 223 224 225 229
299 299 299 299 299 299 300 300 301 302 303 303 300 295 290 283 276 270 265 262 261 261 263 265 265 260 256 254 251 249 244 240 238 235 233 232 231 232 229 227 229 231 231 234 233 229 225 225 228 229 225 228 228 224 226 225 224 225 224 226 226 229 228 219 221 224 225 225 223 227 235 238 230 221 222 225 224 226 228 226 225 225 224 223 222 222 221 222
298 298 298 298 298 298 298 299 300 301 302 303 301 297 291 284 276 270 265 262 260 259 259 263 260 257 257 252 246 244 240 237 236 233 232 231 231 231 226 224 226 227 228 230 230 226 222 221 225 229 226 224 223 222 224 224 224 224 224 226 223 223 225 224 221 222 226 225 222 226 234 236 230 223 223 224 224 226 228 227 225 224 223 221 219 219 217 215
298 297 297 297 296 297 297 297 299 300 301 302 302 299 292 284 276 270 265 261 260 257 257 261 259 256 253 248 244 240 236 235 233 230 229 229 230 227 220 221 222 221 222 223 223 218 216 219 222 227 226 223 223 220 221 222 222 221 222 225 223 221 225 225 220 221 224 226 225 227 233 236 232 227 224 223 224 225 227 227 224 222 221 218 216 215 214 214
297 297 296 296 295 295 295 295 297 297 299 301 301 299 294 285 276 270 265 261 258 254 255 257 254 254 248 243 243 239 235 234 230 227 225 224 225 220 216 218 217 214 212 213 215 213 214 218 221 224 223 222 222 219 220 222 221 219 218 221 222 222 224 225 223 221 221 226 229 227 230 235 235 231 226 224 224 225 227 226 223 219 216 213 213 213 213 214
295 295 295 295 294 294 293 293 294 295 297 298 296 296 294 287 278 270 263 258 254 252 257 251 243 252 253 245 242 239 237 233 228 225 220 217 217 214 215 214 210 208 206 208 211 212 215 218 221 224 221 219 219 217 221 225 223 219 217 219 221 220 222 224 223 221 222 226 229 229 231 234 234 231 226 225 224 225 226 224 222 218 213 212 212 213 214 215
294 294 294 293 293 293 292 291 291 292 294 293 291 291 290 287 280 271 262 256 254 256 260 254 246 252 255 248 241 236 234 229 227 223 215 212 209 208 210 207 204 205 207 208 209 210 215 218 219 221 220 218 217 219 225 228 224 220 217 219 221 219 219 220 220 222 226 230 230 231 233 234 234 229 224 225 224 225 225 223 221 217 212 212 213 213 213 214
294 293 293 292 292 291 290 289 289 288 289 288 286 285 286 290 286 279 272 263 256 253 255 256 252 250 248 244 236 231 228 226 224 218 212 209 206 205 205 202 202 205 207 208 204 207 215 220 219 218 219 217 217 220 224 225 224 221 219 218 218 219 218 216 218 222 225 231 231 230 233 234 232 228 224 225 224 224 223 221 220 216 212 212 213 213 211 212
292 292 292 292 290 289 288 288 286 285 283 280 279 280 283 287 285 282 280 272 264 254 250 252 252 249 244 238 233 230 229 226 219 212 209 208 207 207 205 203 205 205 205 205 204 207 215 221 219 215 216 216 217 219 220 222 223 221 218 217 217 216 215 214 217 221 223 229 230 228 232 232 229 230 227 224 223 222 221 219 219 216 213 212 212 212 210 209
291 291 291 290 290 289 287 286 285 281 276 271 273 277 278 281 283 281 276 273 271 258 247 247 246 244 240 235 231 227 227 225 218 210 207 207 208 209 206 205 208 205 203 206 208 210 215 220 216 210 211 213 215 217 218 221 221 220 217 216 216 211 214 218 216 217 222 229 234 233 233 232 230 229 226 223 221 219 218 218 219 217 213 212 212 211 210 210
291 290 289 289 289 287 287 285 282 276 270 268 271 272 272 278 284 281 274 272 271 259 248 245 242 241 237 231 226 221 221 222 218 210 205 206 207 207 208 207 208 209 206 208 211 215 216 216 211 207 210 214 216 216 217 219 219 219 218 217 217 211 215 222 215 214 221 226 232 234 233 231 227 222 219 217 217 215 215 216 216 214 212 211 211 211 211 212
292 290 289 289 288 287 286 282 276 270 268 269 269 267 267 277 283 279 275 274 269 257 245 242 240 238 231 224 219 215 217 219 218 210 204 207 206 204 208 209 211 213 209 208 213 219 218 211 208 209 212 215 218 217 216 218 218 218 218 219 222 217 217 222 216 217 223 224 225 228 231 227 218 215 212 209 210 211 213 215 214 211 211 210 210 211 211 213
293 292 290 289 288 287 283 276 270 269 271 268 265 262 265 275 279 275 274 272 265 255 241 238 238 231 222 218 212 209 215 217 217 210 204 207 207 205 209 208 213 217 210 207 215 223 219 211 211 212 212 216 221 222 216 214 218 219 214 215 220 221 219 221 220 221 226 226 221 223 231 223 209 209 206 203 206 208 211 215 213 210 209 210 210 210 210 212
293 292 291 288 288 286 279 272 270 270 269 265 261 261 268 273 271 269 271 265 257 252 243 239 236 227 222 216 205 204 213 210 208 208 205 206 205 207 212 207 211 217 210 209 217 222 216 211 212 212 214 218 222 221 212 209 215 217 207 208 214 216 219 221 221 225 229 227 218 220 228 225 209 205 202 202 205 208 211 213 212 209 207 207 208 208 208 211
293 291 290 288 286 282 276 272 270 266 264 263 260 262 268 268 262 261 266 262 251 246 244 238 232 227 223 214 205 209 215 202 203 208 204 204 204 208 214 212 213 214 209 211 216 215 213 211 209 209 214 218 218 215 206 204 211 212 202 206 210 212 218 221 222 226 227 227 222 215 222 225 211 202 202 205 208 210 210 208 207 206 204 203 205 207 209 212
293 292 290 288 284 279 273 269 267 262 262 261 259 261 263 259 254 254 258 257 247 244 243 235 228 224 217 210 208 213 216 209 210 207 201 204 208 210 216 216 215 212 208 213 219 215 210 211 211 211 213 217 214 212 205 204 208 206 198 200 203 208 216 219 223 225 222 228 226 211 215 224 212 201 204 207 209 209 207 204 202 202 203 205 207 209 212 213
294 293 290 288 283 277 271 267 264 261 259 257 257 258 256 249 249 249 246 248 248 244 240 233 229 222 211 207 209 211 212 211 208 202 201 205 208 211 216 217 216 215 210 215 222 221 208 208 214 214 216 219 212 206 206 206 207 204 198 196 199 206 212 218 223 224 222 227 222 208 214 224 215 203 203 205 206 205 202 200 199 200 204 208 211 214 216 216
295 293 290 286 280 275 271 267 264 260 256 254 254 253 248 243 246 245 241 245 249 242 233 230 225 218 212 209 210 209 210 210 206 202 203 205 208 211 213 213 214 216 215 216 221 220 212 210 212 213 215 218 212 205 204 205 205 205 203 200 202 206 212 216 217 220 226 226 214 205 216 223 218 206 201 201 201 204 207 206 204 207 209 212 216 218 218 218
297 293 289 283 276 272 269 266 263 259 254 254 252 247 241 240 242 242 239 242 245 238 232 228 221 218 217 215 214 210 210 211 208 207 206 206 209 211 212 212 210 211 216 216 215 215 216 217 215 212 213 216 216 210 203 202 204 206 207 205 208 209 212 217 216 218 226 225 212 212 219 221 218 208 201 201 200 204 211 213 212 216 217 217 219 220 220 221
298 294 289 281 274 269 268 267 263 258 254 252 247 241 238 240 241 238 235 235 239 238 234 229 224 223 220 219 217 211 211 213 209 209 210 209 211 212 213 215 212 213 218 215 212 213 215 218 217 216 215 215 217 215 206 203 203 207 208 208 213 215 214 219 220 221 224 222 215 217 222 222 217 209 206 205 204 207 210 212 214 217 220 222 221 221 221 221
300 295 288 281 275 271 270 269 263 256 250 245 240 236 236 240 242 238 234 234 237 239 235 229 229 228 222 221 219 211 212 215 211 211 211 211 214 214 214 216 215 217 220 216 216 217 217 219 217 216 216 212 215 219 217 209 206 209 212 214 220 222 222 223 226 228 227 223 216 217 224 225 219 214 213 211 210 210 210 210 211 214 217 220 219 220 219 221
301 294 287 282 278 273 271 269 262 252 245 240 237 235 235 238 241 239 236 236 236 237 235 232 232 231 224 222 221 214 215 217 212 213 216 215 217 216 215 217 216 217 220 219 219 220 223 225 213 212 217 213 214 220 220 216 211 212 216 219 223 226 227 228 232 236 235 231 222 220 227 229 223 218 214 213 213 211 210 210 210 212 215 216 216 216 217 220
300 293 286 283 282 279 273 266 259 249 242 238 236 236 237 238 240 239 236 235 235 235 235 233 231 230 226 221 220 216 216 218 213 214 219 218 219 219 218 218 216 216 219 219 218 219 225 226 212 211 220 218 220 222 219 220 217 213 218 222 224 229 231 231 232 233 238 240 229 223 229 227 222 221 215 213 215 213 214 215 214 216 216 216 218 218 220 221
300 293 287 288 288 284 274 263 254 246 241 238 237 239 239 238 239 238 234 233 234 233 233 231 227 227 226 222 220 214 212 216 214 215 218 218 220 221 220 220 219 218 220 222 224 224 226 227 218 218 222 219 223 225 220 222 222 217 221 223 222 229 233 234 236 231 232 237 232 226 229 226 221 222 216 215 218 219 220 220 220 221 220 220 221 222 224 225
301 293 290 295 294 286 273 259 250 244 240 239 240 241 241 238 237 237 234 232 232 230 230 230 227 226 226 223 220 214 210 213 214 216 219 218 220 222 221 221 222 221 222 224 226 226 226 227 222 222 225 219 219 223 222 222 224 226 228 222 221 229 229 228 233 235 232 236 236 230 230 229 227 222 213 215 221 222 223 222 222 223 223 224 225 226 229 230
303 294 294 302 300 289 272 256 248 242 239 239 240 241 240 238 237 235 234 232 230 230 230 229 227 226 224 223 222 216 213 216 214 215 220 219 220 224 224 223 221 221 224 225 225 225 224 227 224 222 225 221 219 223 224 222 222 226 230 226 225 232 232 229 232 236 237 239 237 232 230 230 229 221 213 215 221 223 223 222 224 225 225 227 230 231 232 234
305 297 299 305 302 292 275 257 249 244 240 240 241 241 239 238 237 234 232 231 230 229 229 229 226 224 224 224 225 221 219 221 219 217 219 219 220 223 225 225 222 221 224 226 226 225 223 225 225 220 221 223 222 223 226 226 223 224 227 227 227 230 233 236 236 236 240 241 237 234 233 228 224 225 223 220 221 225 226 223 223 226 226 228 231 231 231 232
309 301 305 307 299 290 277 262 253 247 243 242 242 241 239 237 237 234 230 230 230 229 229 230 228 227 227 225 224 223 222 224 223 221 221 219 220 223 224 226 224 220 222 224 224 224 223 224 225 223 222 224 224 224 228 232 231 228 228 228 229 229 230 235 237 234 237 242 240 239 238 228 221 226 226 222 224 225 224 222 219 220 221 222 225 226 226 227
317 310 312 311 300 288 280 266 257 251 246 244 243 241 239 237 235 233 229 227 228 228 228 229 230 230 230 228 227 227 225 225 224 224 224 221 220 223 223 224 221 219 222 222 222 226 226 225 226 227 228 226 224 224 228 234 235 234 234 233 232 231 230 234 238 234 232 237 240 242 242 233 225 226 223 223 225 222 219 218 214 213 213 213 213 215 218 221
329 323 320 318 305 288 280 270 260 253 246 245 244 240 237 235 233 232 229 226 226 226 225 227 228 228 228 228 229 229 227 227 226 227 227 223 221 223 224 222 218 219 224 224 222 225 226 226 227 228 230 229 228 228 230 233 234 232 233 233 234 235 234 236 241 239 235 235 235 238 239 233 227 227 225 222 220 218 217 215 211 209 208 207 206 208 214 219
336 329 326 329 318 293 281 274 265 256 248 245 242 237 233 232 231 230 228 226 226 225 225 226 226 226 227 226 228 228 227 227 227 227 228 226 224 226 227 226 224 223 225 225 224 222 223 226 228 227 226 228 229 229 229 230 230 230 232 233 236 238 236 236 239 241 242 238 234 238 239 231 226 225 223 220 216 216 216 211 208 207 204 204 206 209 215 218
336 333 331 335 333 314 291 279 271 261 251 244 238 234 231 227 226 227 226 225 226 226 225 225 225 226 227 225 226 227 226 226 226 226 225 224 223 225 226 226 226 225 222 220 220 221 223 226 228 229 229 229 230 232 232 228 225 227 231 232 235 236 234 235 235 236 239 236 234 239 238 223 217 217 216 216 213 212 212 209 208 208 205 205 206 209 213 213
342 342 338 335 336 331 313 293 278 261 248 240 234 233 231 223 219 222 223 223 223 223 224 224 225 225 225 224 224 225 224 224 225 224 222 220 220 223 225 223 222 221 217 213 212 219 226 228 230 233 235 237 239 240 238 230 222 223 227 229 232 233 233 235 235 236 238 236 234 235 226 212 210 211 212 214 213 211 211 209 208 208 207 207 209 211 211 211
349 348 344 340 338 333 325 316 296 265 247 237 230 230 227 219 215 217 219 220 220 221 222 222 223 223 223 223 222 222 223 222 222 222 221 220 220 220 221 222 220 219 217 214 215 220 225 228 229 231 234 237 238 239 235 226 220 221 224 226 231 232 231 232 235 240 243 239 235 227 215 211 213 213 214 215 214 213 212 209 207 207 208 209 210 210 208 209
356 354 351 347 344 341 336 329 326 303 259 230 218 220 217 210 210 213 216 217 217 220 221 220 222 223 222 223 222 221 221 220 219 221 221 220 217 214 216 219 220 220 218 218 220 223 224 225 224 224 227 232 233 235 233 226 222 225 226 226 229 231 230 229 234 243 244 240 236 223 212 214 217 217 216 216 214 213 211 210 209 207 208 209 208 207 207 208
2 3 0 356 356 2 6 2 15 25 329 213 198 205 207 199 200 205 212 214 211 215 220 216 218 222 220 221 221 219 220 221 218 219 222 221 218 216 216 217 218 220 219 219 222 227 229 225 221 219 220 223 228 231 232 230 229 229 230 231 231 231 229 227 230 235 235 234 233 222 213 216 221 220 217 215 215 214 212 211 209 208 208 208 207 207 209 212
7 7 5 6 11 20 37 53 59 57 59 157 170 178 189 189 193 197 202 207 205 211 218 214 214 218 214 213 215 215 220 224 220 219 224 223 220 220 220 221 222 222 221 221 224 230 235 230 223 222 222 221 224 227 229 232 234 235 236 238 237 235 233 230 231 234 234 231 227 222 219 222 223 220 216 215 215 214 212 211 210 210 209 208 208 210 213 216
14 13 10 13 19 27 48 65 73 71 69 87 133 160 168 177 194 194 190 193 196 204 216 219 218 216 209 207 212 215 223 227 224 224 226 224 223 225 225 226 228 226 223 225 228 232 236 233 228 230 233 231 228 228 230 234 240 243 242 238 236 236 236 235 236 240 240 231 223 224 227 226 222 218 215 215 214 212 212 213 213 214 214 212 213 216 219 223
18 20 18 19 26 35 52 64 74 80 72 71 89 134 164 179 197 193 188 190 193 198 212 223 222 216 210 211 219 225 230 230 228 227 227 226 226 226 226 228 231 231 228 229 231 232 233 233 231 233 239 237 232 230 230 232 238 243 242 237 234 233 234 236 239 242 243 237 230 231 232 226 222 220 217 215 215 215 217 219 220 221 222 222 222 224 227 230